STARLINK-33806, 63723

Orbit data source: Space-Track

STARLINK-33806, 63723 is a payload satellite owned by SpaceX/Seattle (US) in LEO that was launched on Mon, 28 Apr 2025 UTC via an FALCON 9 launch vehicle from the Air Force Western Test Range (AFWTR). Payload-class satellites include a variety of spacecraft equipped with specific instruments for various scientific and technological missions. These include communications satellites like Starlink; space stations such as the ISS; scientific satellites like the Hubble; Earth observation satellites from companies like Planet Labs, Umbra, and HawkEye 360; GPS; miniature CubeSats for education and research; and military/defense satellites.

Loading next visibility...
Identifier
63723, 2025-087AC
Orbit
LEO
Country
Flag of USUS
Related business
Manufacturer
SpaceX/Seattle
Mission
Operational Commercial Communications
Bus & Motor
STARLINK V2MO, Unknown motor
Mass
575 kg wet, ~530 kg dry
Launch date (UTC)
2025-04-28 (1 year ago)
Launch vehicle
FALCON 9
Launch site
Air Force Western Test Range (AFWTR)
Object type
Payload
Rocket body
Debris
Shape & HBR
Box + 2 Pan, 17.7 m
Radar Cross Section
36.964 m², Large (>1 m²)

Expand to show TLE details & history
Last TLE update: 16 hours ago

TLE from 16 hours ago
0 STARLINK-33806
1 63723U 25087AC  26171.19007130  .00011778  00000-0  40895-3 0  9994
2 63723  53.1599 103.3968 0000383 132.1716 227.9318 15.30216225 64896
Epoch: 2026-06-20T04:33Z
TLE epoch observation values (Epoch: 2026-06-20T04:33:42.160Z)
Latitude
0.00004°
Longitude
126.56291°
Altitude
476.242 km
Speed
7.629 km/s
True Right ascension
06h 53m 35s
True Declination
0° 00' 00"
Sunlit
Object was in daylight at epoch
Visualization orbit readout
Latitude
Unknown
Longitude
Unknown
Altitude
Unknown
Speed
Unknown
Apparent Right ascension
Unknown
Apparent Declination
Unknown
Sunlit
N/A
Visualization observer readout
Local Sidereal Time
07:24:31
Azimuth
Unknown
Elevation
Unknown
Doppler factor
Unknown
Orbital elements
Apogee altitude
475.686 km
Perigee altitude
475.161 km
Semi-major axis
6,853.56 km
Eccentricity
0.00004
Inclination
53.1599°
RAAN
103.3968°
Arg. of periapsis
132.1716°
True anomaly
227.92854°
Mean anomaly
227.9318°
Eccentric anomaly
227.93017°
Mean motion
3.82533 °/min
Orbital period
94.11 mins
BSTAR
0.00040895
Loading maneuver chart data...
Computing Atmospheric mass density...
Loading historical data...
Loading historical data...
Loading historical data...
Loading historical data...
Loading historical data...
Loading historical data...
Loading historical data...

Documentation

Showing up to 5 results
|